#timestamp,LO_Frequency,Hit,StdDev 
1659250815.3,286047004.3,N
1659250835.1,286047001.6,N
1659250855.9,286047004.3,N
1659250875.7,286047004.7,N
1659250895.5,286047008.6,Y
1659250915.4,286047008.2,P
1659250935.2,286047006.2,N
1659250955.0,286047007.8,N
1659250955.9,286047007.8,N
1659250975.8,286047004.7,N
1659250995.6,286047004.3,N
1659251015.5,286047003.9,N
1659251035.3,286047002.0,N
1659251055.1,286047002.5,N
1659251075.9,286047000.0,N
1659251095.7,286047000.3,N
1659251115.5,286047000.4,N
1659251135.4,286046999.6,N
1659251155.2,286046997.5,N
1659251175.1,286046996.0,N
1659251176.0,286046996.0,N
1659251195.8,286046996.2,N
1659251215.6,286046995.8,N
1659251235.5,286046996.4,N
1659251255.3,286046995.1,N
1659251275.1,286046996.5,N
1659251295.9,286046999.1,N
1659251315.7,286046997.8,N
1659251335.6,286046995.3,N
1659251355.4,286046997.4,N
1659251375.2,286046999.4,N
1659251395.1,286046998.5,N
1659251396.0,286046998.5,N
1659251415.8,286047000.6,N
1659251435.7,286047001.1,N
1659251455.5,286047000.8,N
1659251475.3,286046998.3,N
1659251495.2,286046997.5,N
1659251515.0,286046997.7,N
1659251515.9,286046997.7,N
1659251535.7,286046997.3,N
1659251555.6,286046996.9,N
1659251575.4,286046997.4,N
1659251595.3,286046997.0,N
1659251615.1,286046999.2,N
1659251616.0,286046999.2,N
1659251635.8,286046999.6,N
1659251655.7,286046999.7,N
1659251675.5,286047004.3,N
1659251695.4,286047007.1,Y
1659251715.2,286047008.9,P
1659251735.0,286047004.7,N
1659251735.9,286047004.7,N
1659251755.8,286047004.6,N
1659251775.6,286047004.7,N
1659251795.4,286047003.1,N
1659251815.3,286047004.6,N
1659251835.1,286047004.9,N
1659251855.9,286047008.2,Y
1659251875.7,286047003.4,P
1659251895.5,286047002.1,P
1659251915.4,286047004.2,P
1659251935.2,286046999.7,N
1659251955.0,286047002.5,N
1659251955.9,286047002.5,N
1659251975.8,286047002.1,N
1659251995.6,286046999.9,N
1659252015.5,286047000.3,N
1659252035.3,286047002.1,N
1659252055.1,286047002.7,N
1659252075.9,286047000.0,N
1659252095.7,286046999.0,N
1659252115.5,286046998.9,N
1659252135.4,286046998.1,N
1659252155.2,286046999.8,N
1659252175.1,286046998.5,N
1659252176.0,286046998.5,N
1659252195.8,286047000.2,N
1659252215.6,286047000.4,N
1659252235.5,286047002.7,N
1659252255.3,286047002.6,N
1659252275.1,286047002.9,N
1659252295.9,286047005.9,Y
1659252315.7,286047001.4,P
1659252335.6,286047003.4,P
1659252355.4,286047006.0,P
1659252375.2,286047001.5,N
1659252395.1,286047000.7,N
1659252396.0,286047000.7,N
1659252415.8,286047000.5,N
1659252435.6,286046998.7,N
1659252455.5,286046996.6,N
1659252475.3,286046996.8,N
1659252495.2,286046997.7,N
1659252515.9,286046996.6,N
1659252535.7,286046999.0,N
1659252555.6,286047000.7,N
1659252575.4,286047002.2,N
1659252595.2,286047003.9,N
1659252615.1,286047006.0,N
1659252616.0,286047006.0,N
1659252635.8,286047002.6,N
1659252655.7,286047000.6,N
1659252675.5,286046998.4,N
1659252695.3,286047000.6,N
1659252715.2,286046999.0,N
1659252735.0,286046998.6,N
1659252735.9,286046998.6,N
1659252755.7,286047001.0,N
1659252775.6,286047001.0,N
1659252795.4,286047001.6,N
1659252815.3,286046999.9,N
1659252835.1,286047002.3,N
1659252836.0,286047002.3,N
1659252855.8,286046999.8,N
1659252875.7,286047000.4,N
1659252895.5,286046998.5,N
1659252915.4,286047002.3,N
1659252935.2,286046998.1,N
1659252955.0,286047001.1,N
1659252955.9,286047001.1,N
1659252975.8,286046998.7,N
1659252995.6,286046997.0,N
1659253015.4,286046997.3,N
1659253035.3,286046997.7,N
1659253055.1,286046998.0,N
1659253075.9,286046996.8,N
1659253095.7,286046996.7,N
1659253115.5,286046999.1,N
1659253135.4,286046999.9,N
1659253155.2,286047002.1,N
1659253175.0,286047002.6,N
1659253175.9,286047002.6,N
1659253195.8,286047002.8,N
1659253215.6,286046998.1,N
1659253235.4,286046998.1,N
1659253255.3,286047001.1,N
1659253275.1,286047002.8,N
1659253295.9,286047000.6,N
1659253315.7,286047001.0,N
1659253335.5,286046999.9,N
1659253355.4,286047001.6,N
1659253375.2,286047001.7,N
1659253395.0,286047000.0,N
1659253395.9,286047000.0,N
1659253415.8,286047001.5,N
1659253435.6,286047001.4,N
1659253455.5,286047004.0,N
1659253475.3,286047001.3,N
1659253495.1,286047003.6,N
1659253515.9,286047005.9,N
1659253535.7,286047005.3,N
1659253555.6,286047003.3,N
1659253575.4,286047004.1,N
1659253595.2,286047004.4,N
1659253615.1,286047002.2,N
1659253616.0,286047002.2,N
1659253635.8,286047002.8,N
1659253655.6,286047001.9,N
1659253675.5,286047004.4,N
1659253695.3,286047001.7,N
1659253715.2,286047002.1,N
1659253735.9,286047002.5,N
1659253755.7,286047001.8,N
1659253775.6,286047003.0,N
1659253795.4,286047004.3,N
1659253815.2,286047004.1,N
1659253835.1,286047001.4,N
1659253836.0,286047001.4,N
1659253855.8,286047002.1,N
1659253875.7,286047002.4,N
1659253895.5,286047002.3,N
1659253915.3,286047002.6,N
1659253935.2,286046999.8,N
1659253955.0,286047001.0,N
1659253955.9,286047001.0,N
1659253975.7,286047000.5,N
1659253995.6,286046998.8,N
1659254015.4,286046999.1,N
1659254035.3,286046999.1,N
1659254055.1,286046997.9,N
1659254056.0,286046997.9,N
1659254075.8,286046995.2,N
1659254095.7,286046995.3,N
1659254115.5,286046997.1,N
1659254135.3,286046996.5,N
1659254155.2,286046996.9,N
1659254175.0,286046996.5,N
1659254175.9,286046996.5,N
1659254195.8,286046998.4,N
1659254215.6,286046999.0,N
1659254235.4,286046998.3,N
1659254255.3,286046998.9,N
1659254275.1,286046999.1,N
1659254295.8,286046997.1,N
1659254315.7,286047001.0,N
1659254335.5,286046999.1,N
1659254355.4,286046999.4,N
1659254375.2,286046998.7,N
1659254395.0,286046997.3,N
1659254395.9,286046997.3,N
